CW9561 Weather Reports


time (UTC)temp
C
wind
direction
speed
KPH
gust
KPH
rain 1hr
cm
rain 24hr
cm
rain mn
cm
humidity
%
barometer
mb
20260904040029 11 215 3.2 0.0 0.00 0.00 0.00 51 1024.5
20260904034030 12 138 0.0 0.0 0.00 0.00 0.00 46 1024.4
20260904033027 13 138 0.0 0.0 0.00 0.00 0.00 44 1024.3
20260904032023 14 137 0.0 0.0 0.00 0.00 0.00 43 1024.3
20260904025024 14 243 0.0 0.0 0.00 0.00 0.00 42 1023.9
20260904023026 14 242 1.6 0.0 0.00 0.00 0.00 43 1023.7
20260904021028 15 243 0.0 0.0 0.00 0.00 0.00 41 1023.7
20260904020026 15 242 0.0 0.0 0.00 0.00 0.00 39 1023.5
20260904015022 16 243 0.0 0.0 0.00 0.00 0.00 39 1023.5
20260904014037 16 242 0.0 0.0 0.00 0.00 0.00 38 1023.4
20260904013035 17 243 0.0 0.0 0.00 0.00 0.00 36 1023.4
20260904012018 17 242 0.0 0.0 0.00 0.00 0.00 38 1023.5
20260904011037 17 242 0.0 0.0 0.00 0.00 0.00 35 1023.4
20260904010037 18 148 0.0 0.0 0.00 0.00 0.00 34 1023.5
20260904005032 18 209 0.0 0.0 0.00 0.00 0.00 32 1023.5
20260904004033 19 258 0.0 0.0 0.00 0.00 0.00 33 1023.4
20260904003029 20 295 1.6 0.0 0.00 0.00 0.00 32 1023.4
20260904001031 20 206 0.0 0.0 0.00 0.00 0.00 30 1023.5
20260904000026 20 221 1.6 0.0 0.00 0.00 0.00 30 1023.5
20260903235026 21 313 1.6 0.0 0.00 0.00 0.00 30 1023.5
20260903234024 21 246 0.0 0.0 0.00 0.00 0.00 31 1023.7
20260903233021 21 198 0.0 0.0 0.00 0.00 0.00 29 1022.9
20260903232016 21 194 1.6 0.0 0.00 0.00 0.00 30 1023.0
20260903230022 21 5 1.6 0.0 0.00 0.00 0.00 29 1023.2
20260903225039 22 188 1.6 0.0 0.00 0.00 0.00 27 1023.3
20260903224034 22 213 1.6 0.0 0.00 0.00 0.00 29 1023.3
20260903223029 22 253 0.0 0.0 0.00 0.00 0.00 27 1023.3
20260903222033 22 259 1.6 0.0 0.00 0.00 0.00 27 1023.3
20260903221029 22 214 0.0 0.0 0.00 0.00 0.00 28 1023.8
20260903220027 22 126 1.6 0.0 0.00 0.00 0.00 28 1023.6
20260903214027 22 236 1.6 0.0 0.00 0.00 0.00 29 1023.9
20260903213027 22 221 3.2 0.0 0.00 0.00 0.00 30 1024.0
20260903212022 22 307 3.2 0.0 0.00 0.00 0.00 30 1024.4
20260903211019 21 111 1.6 0.0 0.00 0.00 0.00 30 1024.4
20260903210038 21 272 1.6 0.0 0.00 0.00 0.00 32 1024.4
20260903205019 21 266 3.2 0.0 0.00 0.00 0.00 32 1024.6
20260903204017 21 113 4.8 0.0 0.00 0.00 0.00 34 1024.5
20260903203039 21 286 1.6 0.0 0.00 0.00 0.00 33 1024.8
20260903200019 20 117 4.8 0.0 0.00 0.00 0.00 36 1024.6
20260903194017 20 237 3.2 0.0 0.00 0.00 0.00 35 1024.9
20260903193038 20 117 1.6 0.0 0.00 0.00 0.00 37 1024.7
20260903190040 20 326 0.0 0.0 0.00 0.00 0.00 38 1025.1
20260903185038 20 136 4.8 0.0 0.00 0.00 0.00 39 1025.1
20260903182034 20 263 1.6 0.0 0.00 0.00 0.00 41 1025.2
20260903181034 19 214 1.6 0.0 0.00 0.00 0.00 42 1025.2
20260903180029 20 241 1.6 0.0 0.00 0.00 0.00 40 1025.3
20260903175024 19 154 1.6 0.0 0.00 0.00 0.00 42 1025.5
20260903173028 18 134 1.6 0.0 0.00 0.00 0.00 45 1025.4
20260903172026 18 169 1.6 0.0 0.00 0.00 0.00 46 1025.3
20260903170025 18 241 0.0 0.0 0.00 0.00 0.00 47 1025.3
20260903165039 17 159 1.6 0.0 0.00 0.00 0.00 48 1025.3
20260903164024 17 222 0.0 0.0 0.00 0.00 0.00 51 1025.2
20260903163041 17 192 3.2 0.0 0.00 0.00 0.00 52 1025.2
20260903162037 17 153 1.6 0.0 0.00 0.00 0.00 52 1025.1
20260903160031 17 155 1.6 0.0 0.00 0.00 0.00 57 1025.0
20260903155031 16 53 1.6 0.0 0.00 0.00 0.00 59 1024.9
20260903154029 15 206 4.8 0.0 0.00 0.00 0.00 66 1025.0
20260903152027 13 40 0.0 0.0 0.00 0.00 0.00 71 1025.1
20260903151028 13 17 0.0 0.0 0.00 0.00 0.00 74 1024.5
20260903150029 12 17 0.0 0.0 0.00 0.00 0.00 75 1024.6
20260903145026 12 355 0.0 0.0 0.00 0.00 0.00 76 1024.7
20260903144021 12 45 0.0 0.0 0.00 0.00 0.00 75 1025.3
20260903143022 12 281 0.0 0.0 0.00 0.00 0.00 72 1024.5
20260903142023 13 265 0.0 0.0 0.00 0.00 0.00 69 1024.5
20260903141021 13 264 0.0 0.0 0.00 0.00 0.00 71 1024.6
20260903140022 12 264 0.0 0.0 0.00 0.00 0.00 73 1024.6
20260903135041 11 265 0.0 0.0 0.00 0.00 0.00 79 1024.6
20260903134040 10 264 0.0 0.0 0.00 0.00 0.00 85 1024.6
20260903133021 8 264 0.0 0.0 0.00 0.00 0.00 86 1024.6
20260903132041 7 265 0.0 0.0 0.00 0.00 0.00 88 1024.4
20260903131036 6 265 3.2 0.0 0.00 0.00 0.00 88 1024.4
20260903130031 6 264 1.6 0.0 0.00 0.00 0.00 87 1024.4
20260903125034 6 265 0.0 0.0 0.00 0.00 0.00 87 1024.3
20260903124030 7 265 0.0 0.0 0.00 0.00 0.00 87 1024.3
20260903122027 7 264 0.0 0.0 0.00 0.00 0.00 86 1024.5
20260903121022 7 265 0.0 0.0 0.00 0.00 0.00 86 1024.4
20260903120023 7 265 0.0 0.0 0.00 0.00 0.00 85 1024.4
20260903115020 7 265 0.0 0.0 0.00 0.00 0.00 84 1024.3
20260903113037 7 265 0.0 0.0 0.00 0.00 0.00 84 1024.0
20260903111039 8 265 0.0 0.0 0.00 0.00 0.00 84 1024.1
20260903105036 7 265 0.0 0.0 0.00 0.00 0.00 86 1024.0
20260903104035 7 265 0.0 0.0 0.00 0.00 0.00 86 1024.0
20260903103036 7 265 0.0 0.0 0.00 0.00 0.00 86 1024.0
20260903102036 7 265 0.0 0.0 0.00 0.00 0.00 85 1024.1
20260903101035 7 264 0.0 0.0 0.00 0.00 0.00 84 1024.2
20260903100032 8 264 0.0 0.0 0.00 0.00 0.00 82 1024.2
20260903093028 8 265 0.0 0.0 0.00 0.00 0.00 81 1024.3
20260903092043 8 264 0.0 0.0 0.00 0.00 0.00 79 1024.4
20260903091023 10 265 0.0 0.0 0.00 0.00 0.00 76 1024.2
20260903090041 10 264 0.0 0.0 0.00 0.00 0.00 75 1024.4
20260903085037 10 265 0.0 0.0 0.00 0.00 0.00 76 1024.4
20260903084035 10 264 0.0 0.0 0.00 0.00 0.00 76 1024.5
20260903082032 10 265 0.0 0.0 0.00 0.00 0.00 75 1024.2
20260903081030 10 264 0.0 0.0 0.00 0.00 0.00 74 1024.3
20260903080026 10 265 0.0 0.0 0.00 0.00 0.00 75 1024.1
20260903075043 10 265 0.0 0.0 0.00 0.00 0.00 76 1024.1
20260903074043 9 265 0.0 0.0 0.00 0.00 0.00 76 1024.0
20260903072038 10 264 0.0 0.0 0.00 0.00 0.00 74 1024.3
20260903070031 10 265 0.0 0.0 0.00 0.00 0.00 74 1024.5
20260903065031 10 265 0.0 0.0 0.00 0.00 0.00 74 1024.8
20260903064029 10 264 0.0 0.0 0.00 0.00 0.00 75 1024.6
20260903063029 9 265 0.0 0.0 0.00 0.00 0.00 77 1024.5
20260903061024 10 264 0.0 0.0 0.00 0.00 0.00 76 1024.7
20260903060026 11 264 0.0 0.0 0.00 0.00 0.00 73 1024.9
20260903055025 11 265 0.0 0.0 0.00 0.00 0.23 72 1024.9
20260903054024 12 265 0.0 0.0 0.00 0.00 0.23 67 1024.8
20260903052018 12 265 1.6 0.0 0.00 0.00 0.23 67 1024.7
20260903051043 12 285 1.6 0.0 0.00 0.00 0.23 69 1024.6
20260903050021 12 275 0.0 0.0 0.00 0.00 0.23 71 1024.7
20260903044038 12 260 0.0 0.0 0.00 0.00 0.23 75 1024.8
20260903043033 11 90 0.0 0.0 0.00 0.00 0.23 79 1024.9